Location: Altmatt
(47.1333°N, 8.7000°E)
Time: 08:27:49
(UTC+00:00)

APEX - Pass Details

Date: 13 July 2020
Orbit: 333 x 1108 km, 69.9° (Epoch: 05 August)

Event Time Altitude Azimuth Distance (km) Brightness Sun altitude
Rises 21:52:57 0° 327° (NNW) 2,123 8.0 -17.7°
Reaches altitude 10° 21:54:52 10° 322° (NW) 1,296 6.4 -17.9°
Maximum altitude 21:57:34 51° 245° (WSW) 459 2.8 -18.1°
Enters shadow 21:57:39 51° 236° (SW) 462 2.8 -18.1°
